Flag for Germany Weather past 2 weeks in Memmingen, Bavaria, Germany

Now
54 °F

Overcast.


Feels Like: 54 °F
Forecast: 43 / 64 °F
Wind: 1 mph from North

Location: Kempten

Current Time: Aug 20, 2014 at 7:57:14 AM

Latest Report: Aug 20, 2014 at 7:00 AM


Visibility: 22 mi

Pressure: 30.03 "Hg

Humidity: 79%

Dew point: 48 °F

Location of MemmingenLocation

Historic Weather in Memmingen — Graph

°F

Memmingen temperature yesterday

Maximum temperature yesterday: 65 °F (at 3:00 PM)
Minimum temperature yesterday: 52 °F (at 6:00 AM)
Average temperature yesterday: 59 °F

Past Weeks' High & Low Weather Summary

 TemperatureHumidityPressure
High81 °F (Aug 10, 6:00 PM)100% (Aug 6, 2:00 AM)30.21 "Hg (Aug 6, 2:00 AM)
Low46 °F (Aug 17, 7:00 AM)42% (Aug 6, 4:00 PM)29.66 "Hg (Aug 13, 2:00 PM)
Average60 °F80%29.97 "Hg
* Reported Aug 5 6:00 AM — Aug 20 6:00 AM, Memmingen, Weather by CustomWeather, © 2014

Note: Actual official high and low records may vary slightly from our data, if they occured in-between our weather recording intervals... More about our weather records

Advertising

Memmingen weather history for previous 24 hours

 ConditionsComfort  
Time TempWeatherWind HumidityBarometerVisibility
6:00 AM
Aug 20
54 °FOvercast.1 mph83%30.02 "Hg22 mi
4:00 AM55 °FOvercast.1 mph91%30.00 "Hg22 mi
3:00 AM55 °FOvercast.No wind88%30.00 "Hg25 mi
2:00 AM56 °FOvercast.1 mph85%30.00 "Hg28 mi
1:00 AM57 °FOvercast.No wind80%30.00 "Hg25 mi
12:00 AM58 °FOvercast.2 mph72%29.99 "Hg28 mi
11:00 PM
Aug 19
59 °FOvercast.3 mph70%29.97 "Hg25 mi
10:00 PM59 °FOvercast.2 mph74%29.96 "Hg19 mi
9:00 PM60 °FOvercast.2 mph73%29.94 "Hg19 mi
8:00 PM61 °FOvercast.3 mph69%29.92 "Hg22 mi
7:00 PM62 °FPartly sunny.2 mph66%29.90 "Hg19 mi
6:00 PM64 °FOvercast.2 mph64%29.89 "Hg19 mi
4:00 PM65 °FOvercast.5 mph57%29.88 "Hg19 mi
3:00 PM65 °FPartly sunny.3 mph61%29.88 "Hg18 mi
2:00 PM64 °FPassing clouds.3 mph62%29.88 "Hg25 mi
1:00 PM64 °FOvercast.3 mph63%29.89 "Hg28 mi
12:00 PM62 °FScattered clouds.3 mph69%29.90 "Hg19 mi
10:00 AM56 °FOvercast.1 mph95%29.91 "Hg11 mi
9:00 AM54 °FOvercast.1 mph98%29.92 "Hg5 mi
8:00 AM53 °FOvercast.2 mph99%29.91 "Hg3 mi
7:00 AM53 °FRain. Overcast.1 mph99%29.92 "Hg2 mi
Weather by CustomWeather, © 2014

See weather overviewHow to use our weather pages